Home   Weather   Caguas   Past weeks

Flag for Puerto Rico Past Weather in Caguas, Puerto Rico — Yesterday and Last 2 Weeks

Now
79 °F

Passing clouds.


Feels Like: 83 °F
Forecast: 71 / 86 °F
Wind: No wind

Location: Luis Munoz Marin

Current Time: Dec 4, 2016 at 2:22:30 am

Latest Report: Dec 4, 2016 at 1:56 am


Visibility: 10 mi

Pressure: 29.94 "Hg

Humidity: 84%

Dew Point: 74 °F

Location of CaguasLocation

Past Weather in Caguas — Graph

°F

Caguas Temperature Yesterday

Maximum temperature yesterday: 86 °F (at 10:56 am)
Minimum temperature yesterday: 78 °F (at 1:56 am)
Average temperature yesterday: 81 °F

High & Low Weather Summary for the Past Weeks

 TemperatureHumidityPressure
High88 °F (Dec 1, 11:56 am)100% (Nov 20, 7:56 pm)30.02 "Hg (Nov 20, 7:56 pm)
Low71 °F (Nov 28, 5:56 am)57% (Nov 27, 10:56 am)29.78 "Hg (Nov 28, 3:56 am)
Average80 °F81%29.90 "Hg
* Reported Nov 19 12:56 am — Dec 4 12:56 am, Caguas, Weather by CustomWeather, © 2016

Note: Actual official high and low records may vary slightly from our data, if they occured in-between our weather recording intervals... More about our weather records

Advertising

Caguas Weather History for the Previous 24 Hours

Scroll right to see more
 ConditionsComfort  
Time TempWeatherWind HumidityBarometerVisibility
12:56 am
Sun, Dec 4
79 °FClear.No wind84%29.96 "Hg10 mi
11:56 pm
Sat, Dec 3
79 °FPassing clouds.No wind88%29.96 "Hg10 mi
10:56 pm80 °FPassing clouds.No wind81%29.97 "Hg10 mi
9:56 pm80 °FPassing clouds.No wind85%29.98 "Hg10 mi
8:56 pm80 °FPassing clouds.No wind85%29.97 "Hg10 mi
7:56 pm81 °FPassing clouds.3 mph82%29.95 "Hg10 mi
6:56 pm81 °FPassing clouds.5 mph79%29.94 "Hg10 mi
5:56 pm82 °FScattered clouds.5 mph77%29.93 "Hg10 mi
4:56 pm83 °FScattered clouds.5 mph74%29.93 "Hg10 mi
3:56 pm83 °FScattered clouds.No wind82%29.92 "Hg10 mi
2:56 pm78 °FLight rain. Scattered clouds.8 mph87%29.93 "Hg10 mi
1:56 pm81 °FLight rain. Broken clouds.10 mph82%29.94 "Hg7 mi
12:56 pm86 °FScattered clouds.5 mph70%29.95 "Hg10 mi
11:56 am85 °FScattered clouds.9 mph70%29.98 "Hg10 mi
10:56 am86 °FScattered clouds.9 mph70%29.99 "Hg10 mi
9:56 am84 °FScattered clouds.5 mph74%30.01 "Hg10 mi
8:56 am84 °FScattered clouds.No wind72%29.99 "Hg10 mi
7:56 am80 °FScattered clouds.No wind81%29.97 "Hg10 mi
6:56 am78 °FPassing clouds.No wind87%29.95 "Hg10 mi
5:56 am78 °FPassing clouds.3 mph84%29.94 "Hg10 mi
4:56 am78 °FPassing clouds.No wind84%29.93 "Hg10 mi
3:56 am78 °FPassing clouds.No wind84%29.93 "Hg10 mi
2:56 am78 °FPassing clouds.3 mph87%29.93 "Hg10 mi
Weather by CustomWeather, © 2016

See weather overviewHow to use our weather pages